STARLINK-31471 (59568 NORAD) Tracking and Keplerian Element Data

This shows tracking and keplerian element data for the satellite.

Feedback or suggestion? Click here.




ElementValue
Catalog59568
NameSTARLINK-31471
Epoch Orbit816
Epoch Day159.76124645
Epoch Year2024
RAAN55.8947
Inclination43.0009
Eccentricity0.0002355
Argument of Perigee268.3045
Mean Anonmoly91.7542
Mean Motion15.40709097
Decay Rate7.7E-05
L11 59568U 24076E 24159.76124645 .00007700 00000+0 19134-3 0 9992
L22 59568 43.0009 55.8947 0002355 268.3045 91.7542 15.40709097 8167



Live tracking and technical data element details for STARLINK-31471 (NORAD 59568). STARLINK-31471 can be tracked NOW for your location showing map with azimuth and elevation plus other details from your city location.







IsCatalogInMostPopularTable: catalog: 59568, numindb: 12
Update: records affected: 1



GetName: 59568 STARLINK-31471

Hit Count: updated at: Fri, 14 Jun 2024 18:51:52 GMT